Weather History for Chester, SC

Change the Weather History Date:

Wednesday, November 6, 2013

  Actual Average (KUZA) Record (KUZA)
Temperature  
Mean Temperature 62 °F -  
Max Temperature 73 °F 64 °F 82 °F (1961)
Min Temperature 50 °F 42 °F 23 °F (1949)
Degree Days  
Heating Degree Days 4    
Growing Degree Days 12 (Base 50)    
Moisture  
Dew Point 53 °F    
Average Humidity 77    
Maximum Humidity 100    
Minimum Humidity 50    
Precipitation  
Precipitation 0.00 in - - ()
Sea Level Pressure  
Sea Level Pressure 30.28 in    
Wind  
Wind Speed 6 mph (NE)    
Max Wind Speed 12 mph    
Max Gust Speed -    
Visibility 8 miles    
Events      
Averages and records for this station are not official NWS values.
T = Trace of Precipitation, MM = Missing Value Source: NWS Daily Summary

Daily Weather History Graph

Daily Weather History Graph

Search for Another Location

Airport:

Trip Planner

Search our weather history database for the weather conditions in past years. The results will help you decide how hot, cold, wet, or windy it might be!

Date:

Astronomy

Nov. 06, 2013 Rise Set
Actual Time 6:50 AM EST 5:26 PM EST
Civil Twilight 6:23 AM EST 5:52 PM EST
Nautical Twilight 5:53 AM EST 6:22 PM EST
Astronomical Twilight 5:24 AM EST 6:52 PM EST
Moon 10:00 AM EST (11/6) 8:31 PM EST (11/6)
Length of Visible Light 11h 28m
Length of Day
10h 35m
Waxing Crescent, 13% of the Moon is Illuminated
Nov 6
Waxing Crescent
Nov 10
First Quarter
Nov 17
Full
Nov 25
Last Quarter
Dec 2
New

Hourly Weather History & Observations

Time (EST) Temp. Dew Point Humidity Pressure Visibility Wind Dir Wind Speed Gust Speed Precip Events Conditions
12:15 AM 55.4 °F 50.0 °F 82% 30.42 in 7.0 mi NNE 9.2 mph - N/A   Overcast
12:35 AM 53.6 °F 50.0 °F 88% 30.41 in 10.0 mi NE 6.9 mph - N/A   Mostly Cloudy
12:55 AM 53.6 °F 50.0 °F 88% 30.41 in 10.0 mi NNE 8.1 mph - N/A   Mostly Cloudy
1:15 AM 53.6 °F 50.0 °F 88% 30.40 in 7.0 mi NNE 6.9 mph - N/A   Overcast
1:35 AM 53.6 °F 50.0 °F 88% 30.39 in 10.0 mi NNE 6.9 mph - N/A   Overcast
1:55 AM 53.6 °F 50.0 °F 88% 30.39 in 10.0 mi North 6.9 mph - N/A   Overcast
2:15 AM 53.6 °F 50.0 °F 88% 30.38 in 7.0 mi NNE 6.9 mph - N/A   Overcast
2:35 AM 53.6 °F 50.0 °F 88% 30.38 in 7.0 mi NNE 9.2 mph - N/A   Overcast
2:55 AM 53.6 °F 50.0 °F 88% 30.38 in 7.0 mi NNE 8.1 mph - N/A   Overcast
3:15 AM 53.6 °F 50.0 °F 88% 30.37 in 7.0 mi NNE 6.9 mph - N/A   Overcast
3:35 AM 53.6 °F 51.8 °F 94% 30.36 in 10.0 mi NNE 8.1 mph - N/A   Mostly Cloudy
3:55 AM 53.6 °F 51.8 °F 94% 30.36 in 7.0 mi NNE 8.1 mph - N/A   Overcast
4:15 AM 53.6 °F 51.8 °F 94% 30.36 in 10.0 mi NNE 8.1 mph - N/A   Overcast
4:35 AM 53.6 °F 51.8 °F 94% 30.36 in 7.0 mi NNE 9.2 mph - N/A   Overcast
4:55 AM 53.6 °F 51.8 °F 94% 30.35 in 7.0 mi NNE 9.2 mph - N/A   Mostly Cloudy
5:15 AM 51.8 °F 51.8 °F 100% 30.35 in 7.0 mi NE 8.1 mph - N/A   Scattered Clouds
5:35 AM 51.8 °F 51.8 °F 100% 30.35 in 7.0 mi NNE 8.1 mph - N/A   Clear
5:55 AM 51.8 °F 51.8 °F 100% 30.35 in 7.0 mi NE 5.8 mph - N/A   Clear
6:15 AM 51.8 °F 50.0 °F 94% 30.35 in 7.0 mi NNE 6.9 mph - N/A   Clear
6:35 AM 50.0 °F 50.0 °F 100% 30.35 in 7.0 mi NNE 8.1 mph - N/A   Clear
6:55 AM 50.0 °F 50.0 °F 100% 30.35 in 7.0 mi NNE 6.9 mph - N/A   Clear
7:15 AM 50.0 °F 50.0 °F 100% 30.36 in 5.0 mi NNE 6.9 mph - N/A   Clear
7:35 AM 51.8 °F 51.8 °F 100% 30.36 in 7.0 mi NNE 6.9 mph - N/A   Clear
7:55 AM 53.6 °F 51.8 °F 94% 30.36 in 7.0 mi NNE 6.9 mph - N/A   Clear
8:15 AM 55.4 °F 51.8 °F 88% 30.36 in 7.0 mi NNE 6.9 mph - N/A   Clear
8:35 AM 55.4 °F 51.8 °F 88% 30.36 in 7.0 mi NE 10.4 mph - N/A   Clear
8:55 AM 59.0 °F 50.0 °F 72% 30.37 in 7.0 mi NE 11.5 mph - N/A   Clear
9:15 AM 59.0 °F 50.0 °F 72% 30.37 in 7.0 mi NE 8.1 mph - N/A   Clear
9:35 AM 60.8 °F 50.0 °F 68% 30.36 in 7.0 mi ENE 8.1 mph - N/A   Clear
9:55 AM 62.6 °F 50.0 °F 63% 30.36 in 7.0 mi NE 5.8 mph - N/A   Clear
10:15 AM 64.4 °F 51.8 °F 64% 30.35 in 7.0 mi NE 8.1 mph - N/A   Clear
10:35 AM 64.4 °F 50.0 °F 59% 30.35 in 7.0 mi NNE 4.6 mph - N/A   Clear
10:55 AM 66.2 °F 51.8 °F 60% 30.34 in 7.0 mi NE 4.6 mph - N/A   Clear
11:15 AM 68.0 °F 50.0 °F 52% 30.33 in 7.0 mi ENE 5.8 mph - N/A   Clear
11:35 AM 69.8 °F 51.8 °F 53% 30.32 in 7.0 mi East 8.1 mph - N/A   Clear
11:55 AM 69.8 °F 51.8 °F 53% 30.31 in 7.0 mi NE 5.8 mph - N/A   Clear
12:15 PM 69.8 °F 51.8 °F 53% 30.30 in 7.0 mi NNE 8.1 mph - N/A   Clear
12:35 PM 71.6 °F 53.6 °F 53% 30.29 in 7.0 mi East 4.6 mph - N/A   Mostly Cloudy
12:55 PM 71.6 °F 53.6 °F 53% 30.27 in 7.0 mi Calm Calm - N/A   Mostly Cloudy
1:15 PM 71.6 °F 53.6 °F 53% 30.26 in 7.0 mi North 4.6 mph - N/A   Scattered Clouds
1:35 PM 73.4 °F 53.6 °F 50% 30.25 in 7.0 mi North 4.6 mph - N/A   Clear
1:55 PM 71.6 °F 53.6 °F 53% 30.24 in 7.0 mi Calm Calm - N/A   Scattered Clouds
2:15 PM 73.4 °F 53.6 °F 50% 30.24 in 7.0 mi East 3.5 mph - N/A   Scattered Clouds
2:35 PM 71.6 °F 53.6 °F 53% 30.23 in 7.0 mi ENE 4.6 mph - N/A   Mostly Cloudy
2:55 PM 73.4 °F 53.6 °F 50% 30.23 in 7.0 mi East 3.5 mph - N/A   Overcast
3:15 PM 73.4 °F 53.6 °F 50% 30.22 in 7.0 mi Calm Calm - N/A   Overcast
3:35 PM 73.4 °F 53.6 °F 50% 30.22 in 7.0 mi Calm Calm - N/A   Mostly Cloudy
3:55 PM 73.4 °F 55.4 °F 53% 30.22 in 7.0 mi SE 4.6 mph - N/A   Scattered Clouds
4:15 PM 73.4 °F 55.4 °F 53% 30.21 in 7.0 mi East 3.5 mph - N/A   Mostly Cloudy
4:35 PM 71.6 °F 55.4 °F 57% 30.20 in 7.0 mi NNE 3.5 mph - N/A   Overcast
4:55 PM 71.6 °F 53.6 °F 53% 30.20 in 5.0 mi Calm Calm - N/A   Haze
5:15 PM 69.8 °F 55.4 °F 60% 30.20 in 7.0 mi Calm Calm - N/A   Clear
5:35 PM 68.0 °F 55.4 °F 64% 30.20 in 10.0 mi NNE 3.5 mph - N/A   Clear
5:55 PM 64.4 °F 55.4 °F 73% 30.20 in 10.0 mi Calm Calm - N/A   Scattered Clouds
6:15 PM 64.4 °F 55.4 °F 73% 30.20 in 10.0 mi Calm Calm - N/A   Mostly Cloudy
6:35 PM 64.4 °F 55.4 °F 73% 30.20 in 7.0 mi Calm Calm - N/A   Mostly Cloudy
6:55 PM 62.6 °F 55.4 °F 77% 30.19 in 7.0 mi Calm Calm - N/A   Scattered Clouds
7:15 PM 62.6 °F 55.4 °F 77% 30.19 in 7.0 mi Calm Calm - N/A   Scattered Clouds
7:35 PM 62.6 °F 55.4 °F 77% 30.19 in 7.0 mi Calm Calm - N/A   Overcast
7:55 PM 62.6 °F 55.4 °F 77% 30.19 in 10.0 mi Calm Calm - N/A   Overcast
8:15 PM 62.6 °F 55.4 °F 77% 30.19 in 10.0 mi Calm Calm - N/A   Scattered Clouds
8:35 PM 60.8 °F 55.4 °F 82% 30.18 in 7.0 mi Calm Calm - N/A   Clear
8:55 PM 60.8 °F 55.4 °F 82% 30.18 in 7.0 mi Calm Calm - N/A   Clear
9:15 PM 59.0 °F 55.4 °F 88% 30.18 in 10.0 mi Calm Calm - N/A   Clear
9:35 PM 59.0 °F 55.4 °F 88% 30.17 in 10.0 mi Calm Calm - N/A   Clear
9:55 PM 59.0 °F 55.4 °F 88% 30.17 in 10.0 mi Calm Calm - N/A   Clear
10:15 PM 59.0 °F 55.4 °F 88% 30.17 in 7.0 mi Calm Calm - N/A   Clear
10:35 PM 55.4 °F 55.4 °F 100% 30.15 in 10.0 mi Calm Calm - N/A   Clear
10:55 PM 57.2 °F 55.4 °F 94% 30.15 in 10.0 mi Calm Calm - N/A   Clear
11:15 PM 57.2 °F 55.4 °F 94% 30.14 in 10.0 mi Calm Calm - N/A   Clear
11:35 PM 57.2 °F 55.4 °F 94% 30.14 in 7.0 mi Calm Calm - N/A   Clear
11:55 PM 55.4 °F 55.4 °F 100% 30.13 in 7.0 mi Calm Calm - N/A   Clear